Weather History for Vilnius, Lithuania

Change the Weather History Date:

Thursday, November 28, 2013

  Actual Average Record
Temperature  
Mean Temperature 38 °F -  
Max Temperature 43 °F 31 °F 43 °F (2013)
Min Temperature 32 °F 23 °F 12 °F (2004)
Degree Days  
Heating Degree Days 28    
Moisture  
Dew Point 35 °F    
Average Humidity 87    
Maximum Humidity 100    
Minimum Humidity 62    
Precipitation  
Precipitation 0.08 in 0.07 in - ()
Sea Level Pressure  
Sea Level Pressure 29.60 in    
Wind  
Wind Speed 13 mph ()    
Max Wind Speed 18 mph    
Max Gust Speed 33 mph    
Visibility 4.7 miles    
Events Rain , Snow    
Averages and records for this station are not official NWS values.
T = Trace of Precipitation, MM = Missing Value Source: Averaged Metar Reports

Daily Weather History Graph

Daily Weather History Graph

Search for Another Location

Airport:

Trip Planner

Search our weather history database for the weather conditions in past years. The results will help you decide how hot, cold, wet, or windy it might be!

Date:

Astronomy

Nov. 28, 2013 Rise Set
Actual Time 8:13 AM EET 4:00 PM EET
Civil Twilight 7:30 AM EET 4:42 PM EET
Nautical Twilight 6:44 AM EET 5:28 PM EET
Astronomical Twilight 6:01 AM EET 6:11 PM EET
Moon 2:09 AM EET (11/28) 1:41 PM EET (11/28)
Length of Visible Light 9h 12m
Length of Day
7h 47m
Waning Crescent, 25% of the Moon is Illuminated
Nov 28
Waning Crescent
Dec 3
New
Dec 9
First Quarter
Dec 17
Full
Dec 25
Last Quarter

Hourly Weather History & Observations

Time (EET) Temp. Windchill Dew Point Humidity Pressure Visibility Wind Dir Wind Speed Gust Speed Precip Events Conditions
12:20 AM 33.8 °F 23.2 °F 33.8 °F 100% 29.83 in 1.4 mi SW 17.3 mph - N/A   Light Drizzle
12:50 AM 33.8 °F 23.2 °F 33.8 °F 100% 29.80 in 1.4 mi WSW 17.3 mph - N/A   Light Drizzle
1:20 AM 35.6 °F 25.5 °F 35.6 °F 100% 29.77 in 1.4 mi WSW 17.3 mph - N/A   Light Drizzle
1:50 AM 35.6 °F 25.5 °F 35.6 °F 100% 29.77 in 1.4 mi WSW 17.3 mph 28.8 mph N/A   Light Drizzle
2:00 AM 35 °F - 35 °F 97% 29.82 in 2 mi WSW 11.2 mph - - Rain Light Drizzle
2:20 AM 35.6 °F 25.9 °F 35.6 °F 100% 29.74 in 1.4 mi WSW 16.1 mph - N/A   Light Drizzle
2:50 AM 35.6 °F 26.2 °F 35.6 °F 100% 29.74 in 1.4 mi SW 15.0 mph - N/A   Light Drizzle
3:20 AM 35.6 °F 27.1 °F 35.6 °F 100% 29.71 in 1.4 mi WSW 12.7 mph - N/A   Light Drizzle
3:50 AM 35.6 °F 27.1 °F 35.6 °F 100% 29.71 in 1.4 mi WSW 12.7 mph - N/A   Light Drizzle
4:20 AM 35.6 °F 26.2 °F 35.6 °F 100% 29.68 in 1.4 mi WSW 15.0 mph - N/A   Light Drizzle
4:50 AM 35.6 °F 26.6 °F 35.6 °F 100% 29.68 in 1.4 mi WSW 13.8 mph - N/A Rain Light Rain
5:00 AM 37 °F - 36 °F 94% 29.72 in 3 mi WSW 11.2 mph - - Rain Drizzle
5:20 AM 37.4 °F 28.5 °F 37.4 °F 100% 29.65 in 1.4 mi WSW 15.0 mph - N/A Rain Light Rain
5:50 AM 37.4 °F 28.5 °F 37.4 °F 100% 29.65 in 1.4 mi WSW 15.0 mph - N/A Rain Light Rain
6:20 AM 37.4 °F 28.9 °F 37.4 °F 100% 29.65 in 1.4 mi WSW 13.8 mph - N/A Rain Light Rain
6:50 AM 37.4 °F 28.2 °F 37.4 °F 100% 29.62 in 1.4 mi WSW 16.1 mph - N/A Rain Light Rain
7:20 AM 39.2 °F 30.8 °F 37.4 °F 93% 29.62 in 1.4 mi WSW 15.0 mph - N/A Rain Light Rain
7:50 AM 39.2 °F 32.0 °F 39.2 °F 100% 29.62 in 1.4 mi WSW 11.5 mph - N/A Rain Light Rain
8:00 AM 39 °F - 38 °F 93% 29.66 in 11 mi WSW 11.2 mph - - Rain Drizzle
8:20 AM 39.2 °F 31.6 °F 39.2 °F 100% 29.59 in 1.4 mi WSW 12.7 mph - N/A Rain Light Rain
8:50 AM 39.2 °F 32.0 °F 39.2 °F 100% 29.59 in 1.6 mi WSW 11.5 mph - N/A Rain Light Rain
9:20 AM 39.2 °F 31.6 °F 39.2 °F 100% 29.59 in 1.6 mi WSW 12.7 mph - N/A Rain Light Rain
9:50 AM 41.0 °F 33.9 °F 41.0 °F 100% 29.56 in 2.5 mi WSW 12.7 mph - N/A   Overcast
10:20 AM 41.0 °F 33.9 °F 41.0 °F 100% 29.56 in 2.5 mi WSW 12.7 mph - N/A   Overcast
10:50 AM 42.8 °F 35.1 °F 41.0 °F 93% 29.53 in 4.3 mi West 16.1 mph - N/A   Overcast
11:00 AM 42 °F - 41 °F 94% 29.58 in 12 mi West 13.4 mph - - Rain Light Rain
11:20 AM 42.8 °F 35.1 °F 41.0 °F 93% 29.53 in 4.3 mi WSW 16.1 mph - N/A   Mostly Cloudy
11:50 AM 42.8 °F 35.1 °F 39.2 °F 87% 29.53 in 4.3 mi West 16.1 mph - N/A   Overcast
12:20 PM 42.8 °F 34.8 °F 39.2 °F 87% 29.53 in 6.2 mi West 17.3 mph - N/A   Mostly Cloudy
12:50 PM 42.8 °F 35.1 °F 37.4 °F 81% 29.50 in 6.2 mi West 16.1 mph - N/A   Mostly Cloudy
1:20 PM 42.8 °F 34.8 °F 37.4 °F 81% 29.50 in 6.2 mi West 17.3 mph - N/A   Mostly Cloudy
1:50 PM 42.8 °F 35.1 °F 35.6 °F 76% 29.50 in 6.2 mi West 16.1 mph 33.4 mph N/A   Mostly Cloudy
2:00 PM 43 °F - 37 °F 72% 29.54 in 12 mi WNW 11.2 mph - -   Partly Cloudy
2:20 PM 42.8 °F 35.1 °F 35.6 °F 76% 29.50 in 6.2 mi West 16.1 mph - N/A   Mostly Cloudy
2:50 PM 42.8 °F 35.1 °F 33.8 °F 70% 29.50 in 6.2 mi West 16.1 mph - N/A   Mostly Cloudy
3:20 PM 42.8 °F 34.5 °F 32.0 °F 66% 29.50 in 6.2 mi WNW 18.4 mph - N/A   Mostly Cloudy
3:50 PM 41.0 °F 33.5 °F 32.0 °F 70% 29.50 in 6.2 mi WNW 13.8 mph - N/A   Scattered Clouds
4:20 PM 41.0 °F 33.5 °F 32.0 °F 70% 29.50 in 6.2 mi West 13.8 mph - N/A   Mostly Cloudy
4:50 PM 39.2 °F 31.2 °F 32.0 °F 75% 29.50 in 6.2 mi West 13.8 mph - N/A   Mostly Cloudy
5:00 PM 40 °F - 31 °F 62% 29.56 in 12 mi West 8.9 mph - -   Scattered Clouds
5:20 PM 39.2 °F 30.5 °F 30.2 °F 70% 29.50 in 6.2 mi West 16.1 mph - N/A   Mostly Cloudy
5:50 PM 39.2 °F 31.6 °F 30.2 °F 70% 29.53 in 6.2 mi WNW 12.7 mph - N/A   Mostly Cloudy
6:20 PM 39.2 °F 31.2 °F 30.2 °F 70% 29.53 in 6.2 mi WNW 13.8 mph - N/A   Mostly Cloudy
6:50 PM 37.4 °F 30.3 °F 32.0 °F 81% 29.53 in 6.2 mi West 10.4 mph - N/A   Mostly Cloudy
7:20 PM 37.4 °F 29.3 °F 32.0 °F 81% 29.53 in 6.2 mi West 12.7 mph - N/A   Mostly Cloudy
7:50 PM 37.4 °F 29.8 °F 32.0 °F 81% 29.53 in 6.2 mi West 11.5 mph - N/A   Mostly Cloudy
8:00 PM 37 °F - 31 °F 72% 29.60 in 12 mi West 8.9 mph - -   Partly Cloudy
8:20 PM 37.4 °F 29.3 °F 32.0 °F 81% 29.53 in 6.2 mi West 12.7 mph - N/A   Mostly Cloudy
8:50 PM 37.4 °F 29.3 °F 30.2 °F 75% 29.53 in 6.2 mi West 12.7 mph - N/A   Mostly Cloudy
9:20 PM 37.4 °F 29.8 °F 32.0 °F 81% 29.53 in 6.2 mi West 11.5 mph - N/A   Mostly Cloudy
9:50 PM 37.4 °F 28.5 °F 32.0 °F 81% 29.56 in 2.5 mi West 15.0 mph 27.6 mph N/A Rain , Snow Snow Showers
10:20 PM 35.6 °F 26.6 °F 32.0 °F 87% 29.56 in 2.5 mi WNW 13.8 mph - N/A Rain Rain
10:50 PM 35.6 °F 27.1 °F 32.0 °F 87% 29.56 in 6.2 mi WNW 12.7 mph - N/A   Overcast
11:00 PM 36 °F - 31 °F 77% 29.62 in 12 mi WNW 8.9 mph - - Rain Light Rain
11:20 PM 35.6 °F 26.6 °F 32.0 °F 87% 29.56 in 6.2 mi West 13.8 mph - N/A   Mostly Cloudy
11:50 PM 35.6 °F 27.1 °F 32.0 °F 87% 29.56 in 6.2 mi West 12.7 mph - N/A   Mostly Cloudy